logo tempoitalia

Diretta Meteo Euro Platform, Olandalunedì 31 agosto ore 07:25

Mappa
Sereno 18 °C Sereno 24 Ore: T.min 14 T.max 20
Ponente Sud Km/h 51.8 Punto di rugiada: 15 °C Umidità: 82% Visibilità: 10 Km
Il sole sorge alle: 06:57 Il sole tramonta alle: 20:37
31 Agosto 2026 07:25 tempo osservato: Sereno Sereno 18 82 1006 vento: Nord S 51.8
31 Agosto 2026 06:55 tempo osservato: Pioggia Pioggia 17 82 1006 vento: Nord S/SO 48.1
31 Agosto 2026 06:25 tempo osservato: Pioggia Pioggia 14 100 1007 vento: Nord S/SO 46.3
31 Agosto 2026 05:55 tempo osservato: Sereno Sereno 19 72 1006 vento: Nord S/SO 40.7
31 Agosto 2026 05:25 tempo osservato: Sereno Sereno 19 72 1007 vento: Nord SO 42.6
31 Agosto 2026 04:55 tempo osservato: Sereno Sereno 19 72 1007 vento: Nord SO 44.4
31 Agosto 2026 04:25 tempo osservato: Sereno Sereno 19 72 1007 vento: Nord S/SO 46.3
31 Agosto 2026 03:55 tempo osservato: Sereno Sereno 19 68 1007 vento: Nord S/SO 51.8
31 Agosto 2026 03:25 tempo osservato: Pioggia Pioggia 18 82 1007 vento: Nord S/SO 51.8
31 Agosto 2026 02:55 tempo osservato: Sereno Sereno 20 77 1007 vento: Nord S/SO 38.8
31 Agosto 2026 02:25 tempo osservato: Sereno Sereno 20 77 1007 vento: Nord S 38.8
31 Agosto 2026 01:55 tempo osservato: Sereno Sereno 20 77 1008 vento: Nord S 35.2
31 Agosto 2026 01:25 tempo osservato: Sereno Sereno 20 77 1008 vento: Nord S/SO 35.2
31 Agosto 2026 00:55 tempo osservato: Sereno Sereno 20 77 1008 vento: Nord S/SO 37
31 Agosto 2026 00:25 tempo osservato: Sereno Sereno 20 77 1008 vento: Nord S/SO 40.7
30 Agosto 2026 23:55 tempo osservato: Sereno Sereno 19 82 1008 vento: Nord S/SO 25.9
30 Agosto 2026 23:25 tempo osservato: Sereno Sereno 20 72 1008 vento: Nord S 27.8
30 Agosto 2026 22:55 tempo osservato: Sereno Sereno 20 72 1009 vento: Nord S 31.5
30 Agosto 2026 22:25 tempo osservato: Sereno Sereno 20 77 1009 vento: Nord S 29.6
30 Agosto 2026 21:55 tempo osservato: Sereno Sereno 20 77 1009 vento: Nord S 31.5
30 Agosto 2026 21:25 tempo osservato: Sereno Sereno 20 72 1009 vento: Nord S 35.2
30 Agosto 2026 20:55 tempo osservato: Sereno Sereno 20 77 1009 vento: Nord S 35.2
30 Agosto 2026 20:25 tempo osservato: Sereno Sereno 20 72 1009 vento: Nord S/SO 29.6
30 Agosto 2026 19:55 tempo osservato: Sereno Sereno 20 72 1009 vento: Nord S 27.8
30 Agosto 2026 19:25 tempo osservato: Sereno Sereno 20 72 1010 vento: Nord S/SO 35.2
30 Agosto 2026 18:55 tempo osservato: Sereno Sereno 20 68 1010 vento: Nord S/SO 37
30 Agosto 2026 18:25 tempo osservato: Sereno Sereno 20 77 1010 vento: Nord S/SO 38.8
30 Agosto 2026 17:55 tempo osservato: Sereno Sereno 20 72 1010 vento: Nord S/SO 33.3
30 Agosto 2026 17:25 tempo osservato: Sereno Sereno 20 68 1010 vento: Nord S/SO 33.3
30 Agosto 2026 16:55 tempo osservato: Sereno Sereno 20 77 1011 vento: Nord S/SO 38.8
30 Agosto 2026 16:25 tempo osservato: Sereno Sereno 20 72 1011 vento: Nord S/SO 37
30 Agosto 2026 15:55 tempo osservato: Sereno Sereno 20 72 1011 vento: Nord S/SO 29.6
30 Agosto 2026 15:25 tempo osservato: Sereno Sereno 20 72 1011 vento: Nord SO 33.3
30 Agosto 2026 14:55 tempo osservato: Sereno Sereno 19 77 1011 vento: Nord SO 31.5
30 Agosto 2026 14:25 tempo osservato: Sereno Sereno 19 77 1011 vento: Nord SO 31.5
30 Agosto 2026 13:55 tempo osservato: Sereno Sereno 19 77 1011 vento: Nord O/SO 33.3
30 Agosto 2026 13:25 tempo osservato: Sereno Sereno 19 82 1011 vento: Nord O/SO 31.5
30 Agosto 2026 12:55 tempo osservato: Sereno Sereno 19 77 1011 vento: Nord O/SO 33.3
30 Agosto 2026 12:25 tempo osservato: Sereno Sereno 19 82 1010 vento: Nord O 25.9
30 Agosto 2026 11:55 tempo osservato: Sereno Sereno 18 88 1010 vento: Nord O 33.3
30 Agosto 2026 11:25 tempo osservato: Pioviggine Pioviggine 18 88 1010 vento: Nord O/SO 42.6
30 Agosto 2026 10:55 tempo osservato: Sereno Sereno 18 93 1010 vento: Nord O 37
30 Agosto 2026 10:25 tempo osservato: Pioggia Pioggia 18 93 1009 vento: Nord O 40.7
30 Agosto 2026 09:55 tempo osservato: Sereno Sereno 19 88 1009 vento: Nord O 35.2
30 Agosto 2026 09:25 tempo osservato: Sereno Sereno 19 88 1008 vento: Nord O/SO 55.5
30 Agosto 2026 08:55 tempo osservato: Sereno Sereno 18 93 1008 vento: Nord O/SO 53.7
30 Agosto 2026 08:25 tempo osservato: Sereno Sereno 19 88 1007 vento: Nord O/SO 51.8
30 Agosto 2026 07:55 tempo osservato: Sereno Sereno 19 88 1007 vento: Nord O/SO 50